Location: Ambrosina
(19.9365°S, 43.9833°W)
Time: 00:12:59
(UTC+00:00)

ERS-2 - Pass Details

Date: 11 May 2021
Orbit: 491 x 496 km, 98.5° (Epoch: 20 June)

Event Time Altitude Azimuth Distance (km) Brightness Sun altitude
Rises 22:10:58 0° 356° (N) 2,552 5.9 -24.0°
Reaches altitude 10° 22:13:09 10° 347° (NNW) 1,679 5.1 -24.5°
Maximum altitude 22:16:27 34° 280° (W) 830 3.7 -25.3°
Drops below altitude 10° 22:19:48 10° 214° (SW) 1,701 5.1 -26.0°
Sets 22:22:01 0° 204° (SSW) 2,592 5.9 -26.5°
